Home > Weather > Rocha > Past weeks

Flag for Uruguay Weather for the Past 2 Weeks in Rocha, Uruguay

Now
46 °F

Clear.


Feels Like: 46 °F
Forecast: 44 / 62 °F
Wind: No wind

Location: Capitan Corbeta

Current Time: May 2, 2016 at 12:48:50 AM

Latest Report: May 2, 2016 at 12:00 AM


Visibility: 10 mi

Pressure: 30.09 "Hg

Humidity: 93%

Dew Point: 45 °F

Location of RochaLocation

Historic Weather in Rocha — Graph

°F

Rocha Temperature Yesterday

Maximum temperature yesterday: 61 °F (at 3:00 PM)
Minimum temperature yesterday: 43 °F (at 7:00 AM)
Average temperature yesterday: 52 °F

High & Low Weather Summary for the Past Weeks

 TemperatureHumidityPressure
High72 °F (Apr 19, 6:00 AM)100% (Apr 17, 11:00 AM)30.24 "Hg (Apr 17, 11:00 AM)
Low43 °F (May 1, 7:00 AM)48% (May 1, 4:00 PM)29.62 "Hg (Apr 19, 3:00 PM)
Average59 °F78%29.96 "Hg
* Reported Apr 16 11:00 PM — May 1 11:00 PM, Rocha, Weather by CustomWeather, © 2016

Note: Actual official high and low records may vary slightly from our data, if they occured in-between our weather recording intervals... More about our weather records

Advertising

Rocha Weather History for the Previous 24 Hours

Scroll right to see more
 ConditionsComfort  
Time TempWeatherWind HumidityBarometerVisibility
11:00 PM
Sun, May 1
48 °FClear.5 mph82%30.09 "Hg10 mi
10:00 PM50 °FClear.6 mph82%30.09 "Hg10 mi
9:00 PM50 °FClear.7 mph82%30.09 "Hg10 mi
8:00 PM50 °FClear.No wind76%30.09 "Hg10 mi
7:00 PM50 °FClear.No wind76%30.09 "Hg10 mi
6:00 PM54 °FClear.5 mph72%30.09 "Hg10 mi
5:00 PM57 °FClear.5 mph63%30.07 "Hg10 mi
4:00 PM61 °FSunny.8 mph48%30.09 "Hg10 mi
3:00 PM61 °FSunny.6 mph55%30.09 "Hg10 mi
2:00 PM59 °FSunny.7 mph55%30.09 "Hg10 mi
1:00 PM57 °FSunny.5 mph59%30.12 "Hg10 mi
12:00 PM57 °FSunny.8 mph59%30.15 "Hg10 mi
11:00 AM55 °FSunny.No wind63%30.18 "Hg10 mi
10:00 AM52 °FSunny.No wind72%30.18 "Hg10 mi
9:00 AM48 °FSunny.No wind82%30.18 "Hg10 mi
8:00 AM43 °FSunny.No wind81%30.18 "Hg10 mi
7:00 AM43 °FSunny.3 mph81%30.15 "Hg10 mi
6:00 AM46 °FPassing clouds.6 mph76%30.15 "HgN/A
4:00 AM48 °FOvercast.5 mph76%30.15 "HgN/A
3:00 AM50 °FOvercast.6 mph76%30.15 "HgN/A
2:00 AM50 °FOvercast.3 mph76%30.18 "HgN/A
1:00 AM50 °FOvercast.No wind76%30.18 "HgN/A
12:00 AM52 °FOvercast.3 mph77%30.18 "HgN/A
Weather by CustomWeather, © 2016

See weather overviewHow to use our weather pages